Location: Caltech
(34.1382°N, 118.1253°W)
Time: 21:12:46
(UTC-07:00)

AO-27 - Visible Passes

Search period start: 15 April 2014 00:00
Search period end: 25 April 2014 00:00
Orbit: 786 x 799 km, 98.7° (Epoch: 15 April)

Date Brightness Start Highest point End Pass type
(mag) Time Alt. Az. Time Alt. Az. Time Alt. Az.
15 Apr 9.2 03:16:42 10° N 03:19:17 30° N 03:19:17 30° N visible
16 Apr 9.5 02:47:59 10° NNE 02:50:16 26° NNE 02:50:16 26° NNE visible
16 Apr 9.7 04:29:30 10° NW 04:31:04 13° NW 04:31:04 13° NW visible
17 Apr 10.1 02:19:43 10° NE 02:21:16 18° NE 02:21:16 18° NE visible
17 Apr 9.2 03:59:23 10° NNW 04:02:03 22° NW 04:02:03 22° NW visible
18 Apr 10.5 01:52:15 10° ENE 01:52:16 10° ENE 01:52:16 10° ENE visible
18 Apr 8.9 03:30:05 10° N 03:33:03 32° NNW 03:33:03 32° NNW visible
19 Apr 9.1 03:01:12 10° NNE 03:04:03 34° NNE 03:04:03 34° NNE visible
20 Apr 9.6 02:32:42 10° NNE 02:35:02 25° NE 02:35:02 25° NE visible
20 Apr 9.3 04:13:08 10° NNW 04:15:49 19° NW 04:15:49 19° NW visible
21 Apr 10.2 02:04:47 10° NE 02:06:02 15° ENE 02:06:02 15° ENE visible
21 Apr 8.8 03:43:33 10° N 03:46:49 31° NW 03:46:49 31° NW visible
22 Apr 8.7 03:14:29 10° N 03:17:48 40° N 03:17:48 40° N visible
23 Apr 9.1 02:45:48 10° NNE 02:48:47 34° NE 02:48:47 34° NE visible
23 Apr 9.5 04:27:07 10° NNW 04:29:34 15° WNW 04:29:34 15° WNW visible
24 Apr 9.8 02:17:34 10° NE 02:19:46 21° ENE 02:19:46 21° ENE visible
24 Apr 8.9 03:57:07 10° NNW 04:00:33 26° NW 04:00:33 26° NW visible
